Tracking 19847 objects as of 16-Sep-2019
HD Live streaming from Space Station
objects crossing your sky now

FENGYUN 1C DEB

Track FENGYUN 1C DEB now!
10-day predictions


NORAD ID: 37064
Int'l Code: 1999-025EEY
Perigee: 832.2 km
Apogee: 1,037.2 km
Inclination: 98.9 °
Period: 103.6 minutes
Semi major axis: 7305 km
RCS: 0.0093 m2 (small)
Launch date: May 10, 1999
Source: People's Republic of China (PRC)
Launch site: Taiyaun Space Center, China (TSC)

Note: This is SATELLITE DEBRIS
aabbcc
Your satellite tracking list
Your tracking list is empty




NASA's NSSDC Master Catalog

Two Line Element Set (TLE):
1 37064U 99025EEY 19255.31924576  .00000895  00000-0  69933-3 0  9999
2 37064  98.8960  79.0464 0140312 284.1625  74.3980 13.90301078511449
Source of the keplerian elements: AFSPC